Location: Bjelajci
(45.0103°N, 16.1758°E)
Time: 19:45:23
(UTC+00:00)

USA 267 - Pass Details

Date: 14 July 2020
Orbit: 1102 x 1106 km, 123.0° (Epoch: 03 August)

Event Time Altitude Azimuth Distance (km) Brightness Sun altitude
Exits shadow 00:32:11 25° 240° (WSW) 2,042 4.2 -20.2°
Drops below altitude 10° 00:37:06 10° 289° (WNW) 2,963 5.5 -19.9°
Sets 00:40:06 0° 302° (WNW) 3,925 6.3 -19.6°
